• Join FlightAware (Why Join?)
  • Login
  • US Flag 
01:23PM EST


 

Airport Tracker/Info


-or-


 

Live Flight TrackerFlight Track Log ✈ TAM3441 ✈ 22-Jul-2013 ✈ SBCF / CNF - SBGR / GRU

Flight Track Log - Related Links

Times and Time Zones

All times are in EDT time to prevent confusion due to time zone crossing. See the TAM3441 flight status page for this flight to view local times or setup timezone preferences in your user account.

Time Position Orientation Groundspeed Altitude Reporting Facility
EDT Latitude Longitude Course Direction KTS MPH feet Rate Location/Type
04:59AM -19.6320 -43.9670 227° Southwest 14 16  Level FlightAware
04:59AM -19.6330 -43.9670 180° South 13 15 825 Level FlightAware
05:02AM -19.7702 -44.0548 211° Southwest  Level Estimated
05:03AM -19.8308 -44.0936 211° Southwest  Level Estimated
05:03AM -19.6410 -43.9620 211° Southwest 175 201  Level FlightAware
05:04AM -19.6590 -43.9470 142° Southeast 189 217 3,700 4,444 Climbing FlightAware
05:04AM -19.6830 -43.9400 165° South 215 247 4,000 769 Climbing FlightAware
05:04AM -19.6980 -43.9360 166° South 231 266 4,200 828 Climbing FlightAware
05:04AM -19.7130 -43.9340 173° South 249 287 4,400 923 Climbing FlightAware
05:05AM -19.7260 -43.9380 196° South 259 298 4,600 1,355 Climbing FlightAware
05:05AM -19.7420 -43.9570 228° Southwest 270 311 5,100 2,294 Climbing FlightAware
05:05AM -19.7500 -43.9740 243° Southwest 265 305 5,900 2,769 Climbing FlightAware
05:06AM -19.7620 -44.0050 248° West 270 311 6,900 2,400 Climbing FlightAware
05:06AM -19.7750 -44.0350 245° Southwest 275 316 7,900 2,400 Climbing FlightAware
05:07AM -19.7950 -44.0770 243° Southwest 280 322 9,300 2,182 Climbing FlightAware
05:07AM -19.8120 -44.1110 242° Southwest 287 330 10,300 1,385 Climbing FlightAware
05:08AM -19.8460 -44.1820 243° Southwest 334 384 11,100 940 Climbing FlightAware
05:09AM -19.8740 -44.2380 242° Southwest 364 419 11,600 1,304 Climbing FlightAware
05:09AM -19.8990 -44.2900 243° Southwest 373 429 12,600 1,213 Climbing FlightAware
05:10AM -19.9410 -44.3750 242° Southwest 384 442 13,400 403 Climbing FlightAware
05:11AM -19.9860 -44.4650 242° Southwest 384 442 13,400 1,839 Level FlightAware
05:14AM -20.1188 -44.5403 208° Southwest  Level Estimated
05:14AM -20.2260 -44.7560 208° Southwest 415 478 21,000  Level FlightAware
05:15AM -20.3030 -44.8420 226° Southwest 423 487 22,300 1,346 Climbing FlightAware
05:16AM -20.3770 -44.9230 226° Southwest 430 495 23,400 1,341 Climbing FlightAware
05:17AM -20.4290 -44.9810 226° Southwest 430 495 24,200 951 Climbing FlightAware
05:17AM -20.4800 -45.0370 226° Southwest 439 505 24,700 876 Climbing FlightAware
05:18AM -20.5470 -45.1120 226° Southwest 444 511 25,500 1,171 Climbing FlightAware
05:19AM -20.6080 -45.1790 226° Southwest 444 511 26,300 964 Climbing FlightAware
05:20AM -20.7090 -45.2920 226° Southwest 451 519 27,300 903 Climbing FlightAware
05:21AM -20.7630 -45.3520 226° Southwest 451 519 28,000 1,268 Climbing FlightAware
05:21AM -20.8100 -45.4050 227° Southwest 445 512 28,800 1,585 Climbing FlightAware
05:22AM -20.9080 -45.5150 226° Southwest 422 486 30,800 1,527 Climbing FlightAware
05:23AM -20.9580 -45.5710 226° Southwest 415 478 31,600 815 Climbing FlightAware
05:24AM -21.0140 -45.6330 226° Southwest 413 475 31,900 1,171 Climbing FlightAware
05:24AM -21.0610 -45.6870 227° Southwest 402 463 33,200 1,595 Climbing FlightAware
05:25AM -21.1270 -45.7620 227° Southwest 384 442 34,000 552 Climbing FlightAware
05:26AM -21.1840 -45.8250 226° Southwest 378 435 34,000  Level FlightAware
05:26AM -21.2330 -45.8800 226° Southwest 380 437 34,000  Level FlightAware
05:27AM -21.2700 -45.9230 227° Southwest 385 443 34,000  Level FlightAware
05:28AM -21.3250 -45.9840 226° Southwest 401 461 34,000  Level FlightAware
05:28AM -21.3660 -46.0310 227° Southwest 403 464 34,000  Level FlightAware
05:29AM -21.4230 -46.0960 227° Southwest 398 458 34,000  Level FlightAware
05:30AM -21.4610 -46.1730 242° Southwest 396 456 34,000  Level FlightAware
05:30AM -21.4860 -46.2280 244° Southwest 399 459 34,000  Level FlightAware
05:31AM -21.5220 -46.3070 244° Southwest 397 457 34,000  Level FlightAware
05:31AM -21.5500 -46.3700 244° Southwest 397 457 34,000  Level FlightAware
05:32AM -21.5910 -46.4600 244° Southwest 398 458 34,000  Level FlightAware
05:33AM -21.6200 -46.5240 244° Southwest 399 459 34,000  Level FlightAware
05:34AM -21.6550 -46.6030 245° Southwest 397 457 34,000  Level FlightAware
05:34AM -21.6910 -46.6830 244° Southwest 397 457 34,000  Level FlightAware
05:35AM -21.7340 -46.7510 236° Southwest 413 475 34,000  Level FlightAware
05:36AM -21.8000 -46.7950 212° Southwest 417 480 34,000 -282 Level FlightAware
05:36AM -21.8790 -46.8400 208° Southwest 428 493 33,600 -1,412 Descending FlightAware
05:37AM -21.9540 -46.8670 198° South 422 486 32,000 -2,325 Descending FlightAware
05:38AM -22.0310 -46.8940 198° South 412 474 30,500 -1,412 Descending FlightAware
05:39AM -22.1120 -46.9250 200° South 410 472 30,000 -643 Descending FlightAware
05:39AM -22.1820 -46.9500 198° South 390 449 29,600 -2,682 Descending FlightAware
05:40AM -22.2640 -46.9810 199° South 430 495 26,200 -4,659 Descending FlightAware
05:41AM -22.3450 -47.0110 199° South 471 542 23,000 -2,791 Descending FlightAware
05:41AM -22.4360 -47.0440 199° South 425 489 22,200 -1,125 Descending FlightAware
05:42AM -22.4970 -47.0670 199° South 410 472 21,500 -1,120 Descending FlightAware
05:43AM -22.5700 -47.0900 196° South 389 448 20,800 -1,114 Descending FlightAware
05:43AM -22.6220 -47.0790 169° South 399 459 20,200 -1,594 Descending FlightAware
05:44AM -22.6830 -47.0520 158° South 378 435 19,100 -2,080 Descending FlightAware
05:44AM -22.7490 -47.0250 159° South 379 436 17,600 -2,118 Descending FlightAware
05:45AM -22.8210 -46.9950 159° South 362 417 16,100 -2,025 Descending FlightAware
05:46AM -22.8780 -46.9720 160° South 361 415 14,900 -1,350 Descending FlightAware
05:46AM -22.9460 -46.9430 159° South 345 397 14,300 -1,000 Descending FlightAware
05:47AM -23.0120 -46.9150 159° South 327 376 13,400 -1,059 Descending FlightAware
05:48AM -23.0670 -46.8910 158° South 312 359 12,800 -1,111 Descending FlightAware
05:49AM -23.1210 -46.8690 159° South 298 343 11,900 -1,280 Descending FlightAware
05:49AM -23.1660 -46.8500 159° South 293 337 11,200 -975 Descending FlightAware
05:50AM -23.2230 -46.8260 159° South 281 323 10,600 -918 Descending FlightAware
05:51AM -23.2700 -46.8060 159° South 256 295 9,900 -1,220 Descending FlightAware
05:51AM -23.2930 -46.7960 158° South 256 295 9,400 -1,500 Descending FlightAware
05:51AM -23.3110 -46.7890 160° South 257 296 9,000 -1,600 Descending FlightAware
05:52AM -23.3440 -46.7750 159° South 263 303 8,200 -1,627 Descending FlightAware
05:52AM -23.3790 -46.7580 156° South 264 304 7,400 -1,527 Descending FlightAware
05:53AM -23.4060 -46.7450 156° South 265 305 6,800 -1,527 Descending FlightAware
05:53AM -23.4400 -46.7280 155° Southeast 249 287 6,000 -1,286 Descending FlightAware
05:53AM -23.4660 -46.7150 155° Southeast 233 268 5,600 -655 Descending FlightAware
05:54AM -23.4870 -46.6950 139° Southeast 200 230 5,400 -273 Descending FlightAware
05:54AM -23.4890 -46.6830 100° East 197 227 5,400 -146 Level FlightAware
05:55AM -23.4840 -46.6570 78° East 192 221 5,300 -545 Descending FlightAware
05:55AM -23.4770 -46.6300 74° East 187 215 4,900 -778 Descending FlightAware
05:56AM -23.4710 -46.6070 74° East 184 212 4,600 -913 Descending FlightAware
05:56AM -23.4660 -46.5890 73° East 177 204 4,200 -1,080 Descending FlightAware
05:56AM -23.4600 -46.5640 75° East 170 196 3,700 -915 Descending FlightAware
05:57AM -23.4530 -46.5410 72° East 160 184 3,300 -764 Descending FlightAware
05:57AM -23.4480 -46.5210 75° East 157 181 3,000 -764 Descending FlightAware
05:58AM -23.4420 -46.4990 73° East 152 175 2,600 -764 Descending FlightAware
05:58AM -23.4370 -46.4810 73° East 150 173 2,300 -720 Descending FlightAware
05:59AM -23.4330 -46.4690 70° East 31 36 -3,450 Descending FlightAware
06:00AM -23.4300 -46.4670 31° Northeast 20 23  Level FlightAware
06:00AM -23.4290 -46.4680 317° Northwest 10 12  Level FlightAware
06:00AM -23.4290 -46.4690 270° West 14 16  Level FlightAware
06:01AM -23.4290 -46.4710 270° West 18 21  Level FlightAware
06:01AM -23.4300 -46.4740 250° West 20 23  Level FlightAware
06:02AM -23.4300 -46.4760 270° West 16 18  Level FlightAware
06:02AM -23.4310 -46.4780 241° Southwest 8 9  Level FlightAware
06:02AM -23.4300 -46.4780 360° North 6 7  Level FlightAware
06:04AM -23.4280 -46.4770 25° Northeast  Level FlightAware
06:07AM -23.4321 -46.4695 121° Southeast  Level Estimated
06:08AM -23.4321 -46.4695 350° North  Level Estimated
06:09AM -23.4321 -46.4695 350° North  Level Estimated
06:10AM -23.4321 -46.4695 350° North  Level Estimated
06:11AM -23.4321 -46.4695 350° North  Level Estimated
06:12AM -23.4321 -46.4695 350° North  Level Estimated
06:13AM -23.4321 -46.4695 350° North  Level Estimated
06:14AM -23.4321 -46.4695 350° North  Level Estimated
06:15AM -23.4321 -46.4695 350° North  Level Estimated
06:16AM -23.4321 -46.4695 350° North  Level Estimated
06:17AM -23.4321 -46.4695 350° North  Level Estimated
06:18AM -23.4321 -46.4695 350° North  Level Estimated
06:19AM -23.4321 -46.4695 350° North  Level Estimated
06:20AM -23.4321 -46.4695 350° North  Level Estimated
06:21AM -23.4321 -46.4695 350° North  Level Estimated
06:22AM -23.4321 -46.4695 350° North  Level Estimated
06:23AM -23.4321 -46.4695 350° North  Level Estimated
06:24AM -23.4321 -46.4695 350° North  Level Estimated
06:25AM -23.4321 -46.4695 350° North  Level Estimated
06:26AM -23.4321 -46.4695 350° North  Level Estimated
06:27AM -23.4321 -46.4695 350° North  Level Estimated
06:28AM -23.4321 -46.4695 350° North  Level Estimated
06:29AM -23.4321 -46.4695 350° North  Level Estimated
06:30AM -23.4321 -46.4695 350° North  Level Estimated
06:31AM -23.4321 -46.4695 350° North  Level Estimated
06:32AM -23.4321 -46.4695 350° North  Level Estimated